NKS982 KATL-KDFW

Flight info

Callsign NKS982
Flight time 0h 51m
Altitude 30000
Route KAJIN2 STNGA MLU YUYUN BEREE3
Aircraft A21N/M-SDE2E3FGHIRWXY/LB1

Departure

Time 2026-05-05 20:22
Airport Hartsfield Jackson Atlanta International Airport (KATL)

Arrival

Time 2026-05-05 21:14
Airport Dallas Fort Worth International Airport (KDFW)
Time Latitude Longitude Altitude Speed Heading
2026-05-05 20:15 33.63850 -84.42882 1038 ft 0 kts 287°
2026-05-05 20:18 33.63847 -84.42868 1038 ft 4 kts 287°
2026-05-05 20:18 33.63868 -84.42809 1038 ft 1 kts 180°
2026-05-05 20:18 33.63870 -84.42809 1038 ft 0 kts 180°
2026-05-05 20:20 33.63746 -84.42809 1038 ft 22 kts 180°
2026-05-05 20:20 33.63657 -84.42572 1039 ft 17 kts 90°
2026-05-05 20:20 33.63656 -84.42268 1039 ft 20 kts 90°
2026-05-05 20:20 33.63653 -84.41748 1038 ft 46 kts 92°
2026-05-05 20:21 33.63658 -84.40822 1038 ft 38 kts 89°
2026-05-05 20:21 33.63555 -84.40742 1039 ft 16 kts 182°
2026-05-05 20:21 33.63473 -84.40838 1039 ft 21 kts 269°
2026-05-05 20:21 33.63471 -84.41238 1037 ft 74 kts 271°
2026-05-05 20:22 33.63471 -84.42077 1039 ft 128 kts 270°
2026-05-05 20:22 33.63462 -84.43354 1041 ft 174 kts 267°
2026-05-05 20:22 33.63402 -84.44767 1606 ft 159 kts 259°
2026-05-05 20:22 33.63312 -84.46065 2172 ft 161 kts 262°
2026-05-05 20:23 33.63401 -84.50361 3034 ft 202 kts 265°
2026-05-05 20:23 33.63419 -84.53770 3886 ft 220 kts 265°
2026-05-05 20:23 33.63448 -84.61547 6249 ft 236 kts 266°
2026-05-05 20:23 33.63469 -84.69532 8793 ft 245 kts 269°
2026-05-05 20:24 33.62553 -84.77921 11128 ft 276 kts 258°
2026-05-05 20:24 33.60957 -84.87622 13266 ft 314 kts 260°
2026-05-05 20:24 33.59131 -84.98393 15234 ft 343 kts 259°
2026-05-05 20:24 33.56155 -85.15550 18344 ft 363 kts 260°
2026-05-05 20:25 33.51841 -85.39258 21863 ft 376 kts 261°
2026-05-05 20:25 33.47196 -85.64200 24661 ft 390 kts 261°
2026-05-05 20:25 33.42336 -85.89980 26831 ft 401 kts 262°
2026-05-05 20:25 33.37344 -86.16108 29157 ft 402 kts 262°
2026-05-05 20:26 33.32241 -86.42600 29990 ft 414 kts 262°
2026-05-05 20:26 33.29392 -86.57071 30011 ft 406 kts 263°
2026-05-05 20:27 33.28117 -86.63600 30004 ft 405 kts 263°
2026-05-05 20:27 33.18015 -87.14465 29919 ft 402 kts 263°
2026-05-05 20:28 33.09511 -87.66214 29971 ft 396 kts 270°
2026-05-05 20:28 33.06416 -87.91664 30073 ft 386 kts 268°
2026-05-05 20:28 33.03495 -88.17401 29953 ft 390 kts 268°
2026-05-05 20:29 32.97342 -88.68432 29902 ft 389 kts 267°
2026-05-05 20:29 32.94208 -88.94019 30020 ft 387 kts 267°
2026-05-05 20:29 32.90998 -89.19491 29981 ft 387 kts 267°
2026-05-05 20:29 32.87769 -89.44855 29849 ft 387 kts 266°
2026-05-05 20:30 32.84469 -89.70279 29798 ft 389 kts 266°
2026-05-05 20:30 32.81130 -89.95594 29958 ft 387 kts 266°
2026-05-05 20:30 32.77774 -90.20643 29914 ft 386 kts 265°
2026-05-05 20:31 32.70863 -90.71087 29959 ft 386 kts 265°
2026-05-05 20:31 32.63768 -91.21458 29810 ft 387 kts 264°
2026-05-05 20:31 32.60120 -91.46581 29938 ft 387 kts 264°
2026-05-05 20:32 32.56474 -91.71462 29924 ft 386 kts 264°
2026-05-05 20:32 32.54373 -91.85630 29868 ft 387 kts 264°
2026-05-05 20:33 32.51508 -92.05722 29890 ft 385 kts 268°
2026-05-05 20:33 32.50796 -92.16238 29885 ft 385 kts 268°
2026-05-05 20:34 32.50337 -92.22525 29878 ft 385 kts 268°
2026-05-05 20:34 32.49871 -92.28852 29872 ft 385 kts 268°
2026-05-05 20:35 32.49406 -92.35180 29854 ft 385 kts 268°
2026-05-05 20:35 32.48937 -92.41518 29858 ft 385 kts 267°
2026-05-05 20:36 32.47735 -92.57602 29860 ft 385 kts 267°
2026-05-05 20:36 32.45805 -92.82877 29839 ft 383 kts 267°
2026-05-05 20:36 32.45325 -92.94024 29832 ft 382 kts 279°
2026-05-05 20:37 32.45794 -92.97123 29840 ft 381 kts 278°
2026-05-05 20:37 32.46617 -93.03334 29839 ft 382 kts 278°
2026-05-05 20:38 32.47404 -93.09522 29832 ft 381 kts 278°
2026-05-05 20:38 32.48576 -93.18975 29832 ft 380 kts 278°
2026-05-05 20:39 32.50341 -93.33412 29834 ft 380 kts 277°
2026-05-05 20:39 32.51600 -93.43810 29826 ft 380 kts 277°
2026-05-05 20:40 32.53084 -93.56156 29812 ft 380 kts 277°
2026-05-05 20:40 32.54564 -93.68581 29813 ft 380 kts 277°
2026-05-05 20:41 32.56032 -93.81009 29832 ft 380 kts 277°
2026-05-05 20:41 32.57023 -93.87067 29811 ft 380 kts 290°
2026-05-05 20:41 32.59003 -93.90806 29821 ft 383 kts 297°
2026-05-05 20:41 32.60832 -93.96600 29817 ft 375 kts 279°
2026-05-05 20:42 32.61162 -94.02765 29811 ft 376 kts 267°
2026-05-05 20:42 32.60078 -94.08863 29795 ft 381 kts 254°
2026-05-05 20:42 32.58054 -94.14705 29794 ft 383 kts 252°
2026-05-05 20:43 32.53969 -94.26289 29791 ft 382 kts 252°
2026-05-05 20:43 32.49859 -94.37940 29792 ft 382 kts 252°
2026-05-05 20:44 32.44356 -94.53479 29790 ft 383 kts 252°
2026-05-05 20:44 32.36109 -94.76636 29794 ft 382 kts 251°
2026-05-05 20:45 32.26871 -95.06253 29795 ft 375 kts 264°
2026-05-05 20:45 32.25603 -95.18528 29786 ft 376 kts 264°
2026-05-05 20:46 32.25401 -95.30852 29776 ft 376 kts 271°
2026-05-05 20:46 32.25727 -95.43197 29777 ft 375 kts 271°
2026-05-05 20:47 32.26032 -95.55333 29173 ft 364 kts 271°
2026-05-05 20:47 32.26179 -95.61345 27768 ft 360 kts 271°
2026-05-05 20:47 32.26319 -95.67211 26781 ft 357 kts 271°
2026-05-05 20:48 32.26458 -95.73170 25709 ft 368 kts 270°
2026-05-05 20:48 32.26593 -95.79213 24949 ft 358 kts 270°
2026-05-05 20:48 32.26717 -95.84812 24787 ft 327 kts 270°
2026-05-05 20:48 32.26826 -95.89958 24508 ft 310 kts 270°
2026-05-05 20:49 32.26936 -95.95164 23868 ft 321 kts 270°
2026-05-05 20:49 32.27051 -96.00419 23214 ft 317 kts 270°
2026-05-05 20:49 32.27164 -96.05595 22593 ft 313 kts 270°
2026-05-05 20:49 32.27272 -96.10736 21993 ft 313 kts 270°
2026-05-05 20:50 32.27378 -96.15851 21387 ft 311 kts 269°
2026-05-05 20:50 32.27482 -96.20962 20774 ft 310 kts 269°
2026-05-05 20:50 32.27583 -96.26049 20163 ft 309 kts 269°
2026-05-05 20:50 32.28000 -96.31170 19787 ft 326 kts 282°
2026-05-05 20:51 32.30530 -96.35885 19775 ft 358 kts 307°
2026-05-05 20:51 32.34096 -96.39922 19522 ft 357 kts 308°
2026-05-05 20:51 32.37692 -96.44032 18258 ft 361 kts 308°
2026-05-05 20:51 32.41295 -96.48167 16908 ft 359 kts 308°
2026-05-05 20:52 32.43773 -96.51015 16267 ft 349 kts 308°
2026-05-05 20:52 32.46290 -96.53892 15804 ft 327 kts 307°
2026-05-05 20:52 32.49518 -96.57622 15322 ft 324 kts 308°
2026-05-05 20:52 32.52748 -96.61326 15007 ft 319 kts 308°
2026-05-05 20:53 32.54836 -96.63721 14981 ft 319 kts 308°
2026-05-05 20:53 32.56434 -96.65552 14677 ft 318 kts 308°
2026-05-05 20:53 32.58023 -96.67349 14304 ft 313 kts 308°
2026-05-05 20:53 32.59599 -96.69123 14095 ft 312 kts 308°
2026-05-05 20:54 32.61175 -96.70902 13929 ft 314 kts 309°
2026-05-05 20:54 32.62760 -96.72693 13590 ft 315 kts 309°
2026-05-05 20:54 32.64345 -96.74481 13257 ft 313 kts 309°
2026-05-05 20:54 32.65924 -96.76264 12938 ft 312 kts 309°
2026-05-05 20:55 32.67471 -96.78016 12854 ft 312 kts 309°
2026-05-05 20:55 32.69104 -96.79883 12740 ft 339 kts 309°
2026-05-05 20:55 32.70844 -96.81868 12598 ft 350 kts 310°
2026-05-05 20:55 32.72615 -96.83872 12447 ft 350 kts 310°
2026-05-05 20:56 32.74375 -96.85862 12308 ft 349 kts 310°
2026-05-05 20:56 32.76109 -96.87829 12164 ft 349 kts 310°
2026-05-05 20:56 32.77885 -96.89801 12027 ft 351 kts 314°
2026-05-05 20:56 32.80042 -96.91247 12005 ft 365 kts 336°
2026-05-05 20:57 32.82597 -96.91674 12013 ft 377 kts 353°
2026-05-05 20:57 32.85240 -96.91647 12006 ft 380 kts 355°
2026-05-05 20:57 32.87836 -96.91561 11999 ft 359 kts 355°
2026-05-05 20:57 32.90234 -96.91484 12010 ft 332 kts 354°
2026-05-05 20:58 32.92488 -96.91437 12014 ft 326 kts 353°
2026-05-05 20:58 32.94749 -96.91407 12007 ft 316 kts 353°
2026-05-05 20:58 32.96890 -96.91385 12019 ft 309 kts 352°
2026-05-05 20:58 32.99034 -96.91369 11790 ft 307 kts 352°
2026-05-05 20:59 33.00997 -96.91357 11421 ft 305 kts 353°
2026-05-05 20:59 33.03081 -96.91344 11054 ft 302 kts 353°
2026-05-05 20:59 33.05180 -96.91331 10645 ft 299 kts 353°
2026-05-05 21:00 33.07262 -96.91318 10027 ft 300 kts 354°
2026-05-05 21:00 33.09371 -96.91309 9226 ft 306 kts 354°
2026-05-05 21:00 33.11494 -96.91296 8532 ft 305 kts 355°
2026-05-05 21:00 33.13612 -96.91281 7888 ft 302 kts 355°
2026-05-05 21:01 33.15695 -96.91266 7310 ft 297 kts 355°
2026-05-05 21:01 33.17737 -96.91253 6657 ft 296 kts 355°
2026-05-05 21:01 33.19785 -96.91260 6191 ft 292 kts 354°
2026-05-05 21:01 33.21787 -96.91310 6010 ft 284 kts 353°
2026-05-05 21:02 33.23758 -96.91372 5987 ft 282 kts 354°
2026-05-05 21:02 33.25726 -96.91438 5990 ft 284 kts 353°
2026-05-05 21:02 33.27705 -96.91504 5984 ft 284 kts 353°
2026-05-05 21:02 33.29685 -96.91570 5986 ft 284 kts 354°
2026-05-05 21:03 33.31665 -96.91635 5987 ft 284 kts 354°
2026-05-05 21:03 33.33620 -96.91699 5984 ft 284 kts 354°
2026-05-05 21:03 33.35530 -96.92097 5980 ft 274 kts 331°
2026-05-05 21:03 33.37022 -96.93393 5983 ft 263 kts 304°
2026-05-05 21:04 33.37796 -96.95328 5988 ft 257 kts 277°
2026-05-05 21:04 33.37716 -96.97425 5992 ft 249 kts 255°
2026-05-05 21:04 33.37160 -96.99331 5987 ft 237 kts 249°
2026-05-05 21:04 33.36314 -97.00990 5994 ft 236 kts 224°
2026-05-05 21:05 33.34868 -97.01926 5998 ft 243 kts 195°
2026-05-05 21:05 33.33177 -97.02036 5998 ft 250 kts 183°
2026-05-05 21:05 33.31422 -97.01945 5997 ft 252 kts 182°
2026-05-05 21:05 33.29708 -97.01823 6023 ft 241 kts 182°
2026-05-05 21:06 33.28048 -97.01689 6001 ft 237 kts 181°
2026-05-05 21:06 33.26410 -97.01562 6013 ft 233 kts 182°
2026-05-05 21:06 33.24838 -97.01428 6005 ft 220 kts 183°
2026-05-05 21:06 33.23356 -97.01365 5999 ft 213 kts 184°
2026-05-05 21:07 33.21888 -97.01389 5996 ft 207 kts 193°
2026-05-05 21:07 33.20467 -97.01628 6001 ft 204 kts 196°
2026-05-05 21:07 33.19089 -97.02003 5998 ft 203 kts 197°
2026-05-05 21:07 33.17708 -97.02350 5996 ft 203 kts 196°
2026-05-05 21:08 33.16296 -97.02530 6001 ft 206 kts 187°
2026-05-05 21:08 33.14857 -97.02504 5847 ft 206 kts 184°
2026-05-05 21:08 33.13430 -97.02465 5365 ft 204 kts 185°
2026-05-05 21:08 33.12011 -97.02486 4845 ft 204 kts 185°
2026-05-05 21:09 33.10602 -97.02497 4324 ft 204 kts 184°
2026-05-05 21:09 33.09202 -97.02501 3851 ft 196 kts 185°
2026-05-05 21:09 33.07891 -97.02506 3587 ft 178 kts 187°
2026-05-05 21:09 33.06710 -97.02514 3375 ft 162 kts 187°
2026-05-05 21:10 33.05613 -97.02522 3190 ft 154 kts 185°
2026-05-05 21:10 33.04542 -97.02528 2995 ft 154 kts 186°
2026-05-05 21:10 33.03459 -97.02535 2806 ft 155 kts 184°
2026-05-05 21:10 33.02393 -97.02538 2595 ft 154 kts 186°
2026-05-05 21:11 33.01325 -97.02545 2410 ft 154 kts 186°
2026-05-05 21:11 33.00252 -97.02551 2210 ft 154 kts 185°
2026-05-05 21:11 32.99173 -97.02556 2019 ft 155 kts 186°
2026-05-05 21:11 32.98120 -97.02561 1825 ft 153 kts 187°
2026-05-05 21:12 32.97051 -97.02568 1635 ft 155 kts 184°
2026-05-05 21:12 32.95972 -97.02574 1444 ft 153 kts 185°
2026-05-05 21:12 32.94925 -97.02569 1250 ft 148 kts 183°
2026-05-05 21:12 32.93913 -97.02588 1052 ft 145 kts 184°
2026-05-05 21:13 32.92921 -97.02585 844 ft 141 kts 181°
2026-05-05 21:13 32.91934 -97.02588 679 ft 142 kts 184°
2026-05-05 21:13 32.90958 -97.02602 574 ft 131 kts 182°
2026-05-05 21:13 32.90224 -97.02611 580 ft 80 kts 179°
2026-05-05 21:14 32.89845 -97.02608 571 ft 28 kts 180°
2026-05-05 21:14 32.89660 -97.02633 574 ft 26 kts 196°
2026-05-05 21:14 32.89536 -97.02706 573 ft 15 kts 211°
2026-05-05 21:14 32.89449 -97.02766 578 ft 12 kts 210°
2026-05-05 21:15 32.89394 -97.02822 575 ft 8 kts 255°
2026-05-05 21:15 32.89394 -97.02874 576 ft 4 kts 272°
2026-05-05 21:15 32.89395 -97.02900 577 ft 4 kts 272°
2026-05-05 21:15 32.89395 -97.02959 579 ft 11 kts 269°
2026-05-05 21:16 32.89394 -97.03084 579 ft 19 kts 270°
2026-05-05 21:16 32.89396 -97.03258 584 ft 18 kts 271°
2026-05-05 21:16 32.89308 -97.03321 587 ft 20 kts 180°
2026-05-05 21:16 32.89163 -97.03319 586 ft 14 kts 180°
2026-05-05 21:17 32.89090 -97.03321 586 ft 3 kts 181°
2026-05-05 21:17 32.89067 -97.03322 586 ft 3 kts 188°
2026-05-05 21:17 32.89057 -97.03328 586 ft 0 kts 213°
2026-05-05 21:17 32.89050 -97.03336 586 ft 5 kts 226°
2026-05-05 21:18 32.89028 -97.03387 587 ft 7 kts 245°
2026-05-05 21:18 32.89008 -97.03433 587 ft 4 kts 231°
2026-05-05 21:18 32.88994 -97.03445 587 ft 1 kts 204°
2026-05-05 21:18 32.88985 -97.03448 587 ft 1 kts 197°
2026-05-05 21:19 32.88967 -97.03454 587 ft 6 kts 197°
2026-05-05 21:19 32.88938 -97.03496 587 ft 6 kts 272°
2026-05-05 21:19 32.88948 -97.03530 587 ft 1 kts 291°
2026-05-05 21:19 32.88948 -97.03531 587 ft 0 kts 291°
2026-05-05 21:39 32.88947 -97.03528 587 ft 3 kts 291°
2026-05-05 21:40 32.88938 -97.03498 587 ft 4 kts 288°
2026-05-05 21:40 32.88930 -97.03468 587 ft 4 kts 289°
2026-05-05 21:40 32.88928 -97.03462 587 ft 0 kts 289°
2026-05-05 21:43 32.88930 -97.03470 587 ft 8 kts 287°
2026-05-05 21:44 32.88935 -97.03398 587 ft 13 kts 96°
2026-05-05 21:44 32.88881 -97.03324 586 ft 8 kts 172°
2026-05-05 21:44 32.88778 -97.03322 586 ft 16 kts 180°
2026-05-05 21:44 32.88669 -97.03322 586 ft 16 kts 180°
2026-05-05 21:45 32.88591 -97.03323 583 ft 15 kts 182°
2026-05-05 21:45 32.88519 -97.03317 581 ft 9 kts 157°
2026-05-05 21:45 32.88470 -97.03292 582 ft 5 kts 168°
2026-05-05 21:45 32.88370 -97.03289 581 ft 15 kts 180°
2026-05-05 21:46 32.88261 -97.03289 582 ft 15 kts 180°
2026-05-05 21:46 32.88198 -97.03313 584 ft 11 kts 244°
2026-05-05 21:46 32.88200 -97.03428 581 ft 16 kts 288°
2026-05-05 21:46 32.88263 -97.03491 580 ft 16 kts 355°
2026-05-05 21:47 32.88324 -97.03488 578 ft 7 kts
2026-05-05 21:47 32.88370 -97.03493 580 ft 7 kts 338°
2026-05-05 21:47 32.88395 -97.03530 583 ft 7 kts 297°
2026-05-05 21:47 32.88399 -97.03540 582 ft 0 kts 296°